This is the latest recevied weather packets stored in our database for station/object PY2UEP-1. If no packets are shown the sender has not sent any weather packets the latest 10 day(s).
| Time | Temp. | Humidity | Pressure | Rain* | Wind** | Luminosity | Snow |
|---|---|---|---|---|---|---|---|
| 1777481436 | 29.44° C | 57% | 1015.7 hPa | 0 mm | - | - | - |
| 1777481136 | 29.44° C | 57% | 1015.7 hPa | 0 mm | - | - | - |
| 1777480836 | 28.89° C | 59% | 1015.8 hPa | 0 mm | - | - | - |
| 1777480536 | 28.89° C | 58% | 1016.1 hPa | 0 mm | - | - | - |
| 1777479936 | 29.44° C | 57% | 1016.1 hPa | 0 mm | - | - | - |
| 1777479636 | 29.44° C | 57% | 1016.2 hPa | 0 mm | - | - | - |
| 1777479336 | 29.44° C | 57% | 1016.4 hPa | 0 mm | - | - | - |
| 1777479036 | 28.89° C | 57% | 1016.4 hPa | 0 mm | - | - | - |
| 1777478736 | 28.89° C | 58% | 1016.5 hPa | 0 mm | - | - | - |
| 1777478436 | 28.89° C | 58% | 1016.5 hPa | 0 mm | - | - | - |
| 1777478136 | 28.33° C | 62% | 1016.6 hPa | 0 mm | - | - | - |
| 1777477836 | 28.33° C | 62% | 1016.6 hPa | 0 mm | - | - | - |
| 1777477536 | 28.89° C | 61% | 1016.8 hPa | 0 mm | - | - | - |
| 1777477236 | 28.33° C | 62% | 1016.8 hPa | 0 mm | - | - | - |
| 1777476936 | 27.78° C | 64% | 1016.9 hPa | 0 mm | - | - | - |
| 1777476636 | 27.78° C | 63% | 1016.9 hPa | 0 mm | - | - | - |
| 1777476336 | 28.33° C | 62% | 1016.9 hPa | 0 mm | - | - | - |
| 1777476036 | 27.78° C | 63% | 1017.1 hPa | 0 mm | - | - | - |
| 1777475736 | 27.78° C | 62% | 1017.2 hPa | 0 mm | - | - | - |
| 1777475436 | 27.78° C | 63% | 1017.2 hPa | 0 mm | - | - | - |
| 1777475136 | 27.78° C | 63% | 1017.4 hPa | 0 mm | - | - | - |
| 1777474836 | 27.78° C | 63% | 1017.4 hPa | 0 mm | - | - | - |
| 1777474536 | 28.33° C | 63% | 1017.5 hPa | 0 mm | - | - | - |
| 1777474236 | 27.78° C | 65% | 1017.5 hPa | 0 mm | - | - | - |
| 1777473936 | 27.22° C | 65% | 1017.6 hPa | 0 mm | - | - | - |
* Rain since midnight (hover to see other rain measurements)
** Current wind speed in m/s (hover to see current wind gust speed)